Location: Terra Rouge Observatory
(46.0000°N, 62.7500°W)
Time: 21:01:43
(UTC-03:00)

NOSS 3-1 (A) - Visible Passes

Search period start: 20 September 2014 00:00
Search period end: 30 September 2014 00:00
Orbit: 896 x 1317 km, 63.4° (Epoch: 26 August)

Date Brightness Start Highest point End Pass type
(mag) Time Alt. Az. Time Alt. Az. Time Alt. Az.
20 Sep 6.0 05:53:01 10° SSE 05:56:57 18° ESE 06:01:03 10° ENE visible
22 Sep 5.0 06:12:13 10° S 06:17:48 39° ESE 06:23:51 10° NE visible
23 Sep 5.6 05:28:45 10° SSE 05:33:31 24° ESE 05:38:35 10° ENE visible
24 Sep 6.0 04:46:13 10° SE 04:49:22 15° ESE 04:52:37 10° ENE visible
25 Sep 4.3 05:48:39 10° SSW 05:54:31 52° ESE 06:00:55 10° NE visible
26 Sep 5.0 05:04:49 10° S 05:10:08 33° ESE 05:15:52 10° NE visible
27 Sep 5.6 04:21:37 10° SSE 04:25:54 20° ESE 04:30:26 10° ENE visible
27 Sep 3.5 06:09:45 10° SW 06:15:54 81° NW 06:22:43 10° NE visible
28 Sep 6.0 03:39:56 10° ESE 03:41:48 11° ESE 03:43:43 10° E visible
28 Sep 3.8 05:25:50 13° SSW 05:31:17 68° ESE 05:37:56 10° NE visible
29 Sep 4.4 04:43:15 22° S 04:46:49 44° ESE 04:53:01 10° NE visible
29 Sep 4.0 06:31:45 10° WSW 06:37:43 46° NW 06:44:18 10° NNE visible
